[ hide orbit diagram ]
For accurate long-term ephemerides, please instead use our Horizons system.This orbit viewer was implemented using two-body methods, and hence should not be used for determining accurate long-term trajectories (over several years or decades) or planetary encounter circumstances.
Orbital Elements at Epoch 2459200.5 (2020-Dec-17.0) TDB
Reference: JPL 12 (heliocentric ecliptic J2000)
Element | Value | Uncertainty (1-sigma) | Units |
e | .1514717642659513 | 6.7765e-08 | |
a | 2.331652814798209 | 1.7521e-08 | au |
q | 1.978473249285052 | 1.5632e-07 | au |
i | 3.187720827546304 | 7.1313e-06 | deg |
node | 236.7279242707109 | 0.00012561 | deg |
peri | 266.5087448289754 | 0.00012894 | deg |
M | 311.805532123242 | 2.6523e-05 | deg |
tp | 2459374.596059631376 (2021-Jun-09.09605963) | 9.6577e-05 | TDB |
period | 1300.451778564415 3.56 | 1.4658e-05 4.013e-08 | d yr |
n | .2768268735019214 | 3.1203e-09 | deg/d |
Q | 2.684832380311365 | 2.0175e-08 | au |
|
| | Orbit Determination Parameters
Additional Information
|
[ show covariance matrix ]
Physical Parameter Table
Parameter |
Symbol |
Value |
Units |
Sigma |
Reference |
Notes |
absolute magnitude |
H |
17.7 |
|
n/a |
MPO440347 |
|
|
278134 (2007 CJ51) Discovered 2007-Feb-11 by Charleston at Charleston |
Reference: 20110517/Numbers.arc | Last Updated: 2011-05-20 |
|
[ show close-approach data ]
|